Voltar ao catálogo

GEESAT 3-02

AtivoComunicaçõesLEO
NORAD 61012·PAYLOAD·🇨🇳 China

Lançado Sep 5, 2024 de Taiyuan Satellite Launch Center

Loading…

Próximas Passagens (próximas 24 horas)

TLE

AtualizadoSource: Space-Track

Época: Sep 14, 2026, 14:26 UTC

1 61012U 24159B   26257.60191532  .00001383  00000-0  18917-3 0  9994
2 61012  49.9955  28.4490 0018417  40.7214 319.5098 14.84502095110071

Acompanhe GEESAT 3-02 em tempo real com AllMySat

Download on the App Store